Simultaneous Nadir Overpasses (SNOs) Predictions

Prediction of SNOs between METOP-B and NOAA-19 Satellite Orbit:

Table of predicted SNOs for the next 14.0 days since TLE Epoch: 12/4/2021
Index Date (METOP-B) Time (METOP-B) Lat,Lon (METOP-B) SZA (METOP-B ) Date (NOAA-19) Time (NOAA-19) Lat,Lon (NOAA-19) SZA (NOAA-19 ) Distance(km) Time Diff (sec)
1 12/06/2021 12:33:00 -80.71,-157.11 75.34 12/06/2021 12:31:57 -80.71,-157.11 75.36 0.21 63
2 12/06/2021 13:23:41 80.71, 10.14 104.66 12/06/2021 13:22:52 80.71, 10.12 104.65 0.63 49
3 12/06/2021 14:14:22 -80.70, 177.40 75.35 12/06/2021 14:13:57 -80.71, 177.45 75.35 1.14 25
4 12/06/2021 15:05:03 80.70, -15.34 104.65 12/06/2021 15:04:52 80.71, -15.32 104.66 1.37 11
5 12/06/2021 15:55:44 -80.69, 151.91 75.36 12/06/2021 15:55:57 -80.70, 152.02 75.34 2.36 13
6 12/06/2021 16:46:24 80.71, -40.49 104.68 12/06/2021 16:46:51 80.70, -40.40 104.69 2.25 27
7 12/06/2021 17:37:05 -80.70, 126.77 75.33 12/06/2021 17:37:56 -80.69, 126.94 75.31 3.36 51
8 12/06/2021 18:27:46 80.70, -65.98 104.67 12/06/2021 18:28:51 80.69, -65.83 104.70 2.65 65
9 12/17/2021 16:18:22 80.73, -33.13 105.43 12/17/2021 16:17:13 80.72, -33.25 105.38 2.63 69
10 12/17/2021 17:09:03 -80.73, 134.14 74.59 12/17/2021 17:08:18 -80.71, 134.08 74.62 2.03 45
11 12/17/2021 17:59:44 80.72, -58.63 105.41 12/17/2021 17:59:13 80.71, -58.69 105.38 1.39 31
12 12/17/2021 18:50:25 -80.72, 108.65 74.61 12/17/2021 18:50:18 -80.71, 108.64 74.62 0.86 7
13 12/17/2021 19:41:05 80.71, -84.12 105.39 12/17/2021 19:41:12 80.71, -84.13 105.39 0.21 7
14 12/17/2021 20:31:46 -80.71, 83.16 74.62 12/17/2021 20:32:17 -80.71, 83.19 74.61 0.53 31
15 12/17/2021 21:22:27 80.70,-109.61 105.37 12/17/2021 21:23:12 80.71,-109.57 105.39 1.13 45



Historial Predications of SNOs between METOP-B and NOAA-19
